Simultaneous Nadir Overpasses (SNOs) Predictions

Prediction of SNOs between GOES-16 and TERRA Satellite Orbit:

Table of predicted SNOs for the next 14.0 days since TLE Epoch: 4/6/2024
Index Date Time (GOES-16) GOES-16 Lat,Lon TERRA Lat,Lon Distance(km) Time Diff (sec)
1 04/06/2024 14:49:36 0.03, -75.22 -0.16, -74.28 106.20 80
2 04/07/2024 03:09:44 -0.03, -75.20 -0.87, -79.18 451.57 80
3 04/09/2024 02:49:59 -0.03, -75.22 0.01, -75.06 18.29 80
4 04/11/2024 02:32:54 -0.03, -75.24 0.90, -70.94 488.53 80
5 04/11/2024 14:52:54 0.02, -75.26 0.13, -75.80 61.94 80
6 04/13/2024 14:38:28 0.02, -75.28 -0.73, -71.68 408.81 80
7 04/14/2024 02:58:36 -0.02, -75.27 -0.30, -76.57 148.59 80
8 04/16/2024 02:38:50 -0.01, -75.30 0.57, -72.45 323.03 80
9 04/16/2024 14:58:50 0.01, -75.32 0.44, -77.32 227.01 80
10 04/18/2024 14:44:24 0.00, -75.36 -0.45, -73.20 245.99 80
11 04/19/2024 03:04:31 -0.00, -75.36 -0.58, -78.09 310.71 80
